GW3210 Weather Reports


time (UTC)temp
F
wind
direction
speed
knots
gust
knots
rain 1hr
in
rain 24hr
in
rain mn
in
humidity
%
barometer
mb
20260831023116 68 315 4.3 7.0 0.00 0.00 0.00 44 1017.8
20260831022136 68 338 4.3 9.6 0.00 0.00 0.00 43 1017.8
20260831021136 69 0 3.5 5.2 0.00 0.00 0.00 42 1017.9
20260831020116 69 338 4.3 7.0 0.00 0.00 0.00 41 1017.9
20260831014116 71 338 4.3 7.8 0.00 0.00 0.00 38 1018.1
20260831013116 72 293 7.0 9.6 0.00 0.00 0.00 37 1018.2
20260831012116 72 315 6.1 8.7 0.00 0.00 0.00 37 1018.3
20260831011116 73 270 4.3 7.8 0.00 0.00 0.00 36 1018.4
20260831010116 73 0 7.8 11.3 0.00 0.00 0.00 35 1018.5
20260831005116 73 293 5.2 8.7 0.00 0.00 0.00 36 1018.6
20260831004116 74 338 5.2 8.7 0.00 0.00 0.00 35 1018.6
20260831003116 74 315 5.2 10.4 0.00 0.00 0.00 34 1018.8
20260831002115 75 315 5.2 9.6 0.00 0.00 0.00 33 1018.8
20260831001116 75 315 2.6 3.5 0.00 0.00 0.00 33 1019.0
20260831000116 75 270 3.5 7.0 0.00 0.00 0.00 33 1018.9
20260830235116 75 0 4.3 8.7 0.00 0.00 0.00 33 1018.9
20260830234116 75 338 3.5 6.1 0.00 0.00 0.00 32 1019.0
20260830233115 74 293 3.5 5.2 0.00 0.00 0.00 33 1019.2
20260830232116 74 315 8.7 12.2 0.00 0.00 0.00 33 1019.2
20260830231116 74 338 4.3 8.7 0.00 0.00 0.00 32 1019.4
20260830230116 74 338 2.6 3.5 0.00 0.00 0.00 32 1019.5
20260830225116 74 293 6.1 9.6 0.00 0.00 0.00 31 1019.7
20260830224115 74 315 3.5 4.3 0.00 0.00 0.00 34 1019.9
20260830223135 73 315 4.3 7.0 0.00 0.00 0.00 31 1020.2
20260830222115 73 315 2.6 5.2 0.00 0.00 0.00 32 1020.3
20260830221115 73 338 6.1 12.2 0.00 0.00 0.00 34 1020.5
20260830220115 73 0 7.0 9.6 0.00 0.00 0.00 34 1020.7
20260830215116 73 338 2.6 7.0 0.00 0.00 0.00 35 1020.7
20260830214115 72 315 2.6 5.2 0.00 0.00 0.00 35 1020.8
20260830213115 72 315 2.6 4.3 0.00 0.00 0.00 35 1021.0
20260830212116 72 338 2.6 2.6 0.00 0.00 0.00 35 1021.0
20260830211115 72 270 3.5 6.1 0.00 0.00 0.00 34 1021.2
20260830210115 72 293 4.3 7.0 0.00 0.00 0.00 34 1021.2
20260830205116 71 293 4.3 7.8 0.00 0.00 0.00 35 1021.4
20260830204116 71 0 5.2 7.8 0.00 0.00 0.00 35 1021.6
20260830203135 71 45 1.7 3.5 0.00 0.00 0.00 36 1021.7
20260830202115 71 293 3.5 6.1 0.00 0.00 0.00 36 1021.8
20260830201115 70 315 4.3 7.8 0.00 0.00 0.00 37 1022.0
20260830200115 71 293 2.6 5.2 0.00 0.00 0.00 36 1021.9
20260830195135 69 293 3.5 4.3 0.00 0.00 0.00 37 1021.9
20260830194115 69 315 1.7 4.3 0.00 0.00 0.00 38 1022.0
20260830193115 69 270 3.5 6.1 0.00 0.00 0.00 40 1022.0
20260830192115 67 293 3.5 6.1 0.00 0.00 0.00 41 1022.3
20260830191136 67 338 0.9 2.6 0.00 0.00 0.00 43 1022.3
20260830190115 68 315 4.3 8.7 0.00 0.00 0.00 41 1022.4
20260830185137 67 0 0.9 1.7 0.00 0.00 0.00 43 1022.6
20260830184117 67 338 3.5 5.2 0.00 0.00 0.00 46 1022.5
20260830183117 67 293 2.6 3.5 0.00 0.00 0.00 44 1022.5
20260830182117 67 293 3.5 9.6 0.00 0.00 0.00 43 1022.5
20260830181117 66 270 3.5 7.0 0.00 0.00 0.00 48 1022.5
20260830180117 65 293 4.3 7.0 0.00 0.00 0.00 47 1022.4
20260830175117 63 293 2.6 2.6 0.00 0.00 0.00 51 1022.3
20260830174117 63 270 2.6 3.5 0.00 0.00 0.00 51 1022.3
20260830173115 64 23 1.7 3.5 0.00 0.00 0.00 52 1022.3
20260830172117 62 270 0.9 1.7 0.00 0.00 0.00 55 1022.4
20260830171117 62 270 3.5 5.2 0.00 0.00 0.00 57 1022.4
20260830170117 59 0.0 0.9 0.00 0.00 0.00 59 1022.4
20260830165117 58 293 2.6 3.5 0.00 0.00 0.00 60 1022.3
20260830164117 57 293 1.7 2.6 0.00 0.00 0.00 60 1022.2
20260830163117 56 0 0.9 1.7 0.00 0.00 0.00 63 1022.3
20260830162137 56 338 0.9 1.7 0.00 0.00 0.00 64 1022.4
20260830161117 55 0 0.9 1.7 0.00 0.00 0.00 65 1022.5
20260830160117 55 45 0.9 1.7 0.00 0.00 0.00 67 1022.5
20260830155157 54 0.0 0.9 0.00 0.00 0.00 68 1022.5
20260830154137 54 45 0.9 1.7 0.00 0.00 0.00 71 1022.5
20260830153116 53 0.0 0.9 0.00 0.00 0.00 76 1022.6
20260830152157 53 0.0 0.9 0.00 0.00 0.00 77 1022.6
20260830151117 52 0.0 1.7 0.00 0.00 0.00 77 1022.7
20260830150116 52 0.0 0.0 0.00 0.00 0.00 77 1022.7
20260830145137 52 0.0 0.9 0.00 0.00 0.00 78 1022.6
20260830144137 51 315 0.9 0.9 0.00 0.00 0.00 77 1022.7
20260830143117 51 315 0.9 1.7 0.00 0.00 0.00 74 1022.6
20260830142116 51 0.0 0.0 0.00 0.00 0.00 74 1022.6
20260830141137 51 315 0.9 1.7 0.00 0.00 0.00 73 1022.6
20260830140117 51 315 0.9 0.9 0.00 0.00 0.00 73 1022.6
20260830135117 51 0.0 0.0 0.00 0.00 0.00 73 1022.5
20260830134137 51 0.0 0.0 0.00 0.00 0.00 73 1022.5
20260830133137 51 0.0 0.0 0.00 0.00 0.00 72 1022.4
20260830132136 51 0.0 0.0 0.00 0.00 0.00 72 1022.4
20260830131116 51 0.0 0.0 0.00 0.00 0.00 72 1022.3
20260830130116 51 0.0 0.0 0.00 0.01 0.00 72 1022.4
20260830125117 51 0.0 0.0 0.00 0.01 0.00 72 1022.5
20260830124116 51 0.0 0.9 0.00 0.02 0.00 72 1022.4
20260830123118 51 315 0.9 0.9 0.00 0.03 0.00 72 1022.3
20260830122116 51 315 0.9 1.7 0.00 0.04 0.00 71 1022.3
20260830121116 52 315 1.7 1.7 0.00 0.04 0.00 76 1022.4
20260830120116 52 315 0.9 1.7 0.00 0.04 0.00 77 1022.3
20260830115116 52 293 1.7 2.6 0.00 0.04 0.00 77 1022.3
20260830114116 52 0.0 0.9 0.00 0.04 0.00 76 1022.5
20260830113116 52 293 0.9 0.9 0.00 0.04 0.00 73 1022.3
20260830112116 51 293 0.9 0.9 0.00 0.04 0.00 71 1022.2
20260830111116 52 293 0.9 1.7 0.00 0.04 0.00 70 1022.2
20260830110117 52 0.0 0.9 0.00 0.04 0.00 69 1022.3
20260830105116 52 293 0.9 0.9 0.00 0.04 0.00 70 1022.3
20260830104156 52 293 0.9 0.9 0.00 0.04 0.00 70 1022.3
20260830103117 52 0.0 0.9 0.00 0.04 0.00 70 1022.1
20260830102136 52 293 0.9 1.7 0.00 0.04 0.00 70 1022.0
20260830101116 52 293 0.9 1.7 0.00 0.04 0.00 68 1021.9
20260830100116 52 293 0.9 0.9 0.00 0.04 0.00 67 1021.9
20260830095116 53 0.0 0.0 0.00 0.04 0.00 67 1022.0
20260830094118 53 0.0 0.9 0.00 0.04 0.00 67 1022.0
20260830093117 53 293 0.9 1.7 0.00 0.04 0.00 66 1022.2
20260830092116 53 293 0.9 1.7 0.00 0.04 0.00 66 1022.1
20260830091116 53 293 0.9 0.9 0.00 0.04 0.00 66 1022.1
20260830090136 54 315 0.9 1.7 0.00 0.04 0.00 65 1022.1
20260830085116 54 293 1.7 2.6 0.00 0.04 0.00 65 1022.2
20260830084116 54 0.0 1.7 0.00 0.04 0.00 65 1022.2
20260830083116 54 315 1.7 4.3 0.00 0.04 0.00 65 1022.3
20260830082116 55 293 4.3 7.0 0.00 0.04 0.00 65 1022.3
20260830081116 55 315 2.6 3.5 0.00 0.04 0.00 65 1022.2
20260830080116 55 293 1.7 2.6 0.00 0.04 0.00 64 1022.1
20260830065116 56 315 2.6 3.5 0.00 0.04 0.04 61 1022.2
20260830064116 56 293 1.7 2.6 0.00 0.04 0.04 60 1022.2
20260830063116 56 293 1.7 3.5 0.00 0.04 0.04 59 1022.1
20260830062116 56 338 1.7 2.6 0.00 0.04 0.04 59 1022.0
20260830061116 57 338 1.7 2.6 0.00 0.04 0.04 58 1022.0
20260830060116 57 315 1.7 2.6 0.00 0.04 0.04 57 1022.1
20260830055116 57 338 3.5 6.1 0.00 0.04 0.04 57 1022.2
20260830054116 58 338 3.5 7.0 0.00 0.04 0.04 56 1022.0
20260830052116 58 315 2.6 4.3 0.00 0.04 0.04 55 1021.8
20260830051116 58 315 5.2 7.8 0.00 0.04 0.04 54 1021.9
20260830050116 59 315 4.3 7.0 0.00 0.04 0.04 53 1021.8
20260830045116 59 338 3.5 5.2 0.00 0.04 0.04 52 1021.7
20260830044136 59 0 2.6 4.3 0.00 0.04 0.04 51 1021.6
20260830043116 60 315 3.5 7.0 0.00 0.04 0.04 51 1021.7
20260830042116 60 338 4.3 7.8 0.00 0.04 0.04 50 1021.6
20260830041116 60 338 3.5 7.0 0.00 0.04 0.04 49 1021.5
20260830040116 61 338 3.5 5.2 0.00 0.04 0.04 48 1021.4
20260830035116 61 0 4.3 7.8 0.00 0.04 0.04 48 1021.3
20260830034116 61 315 6.1 8.7 0.00 0.04 0.04 47 1021.2
20260830033137 62 338 4.3 7.0 0.00 0.04 0.04 46 1021.0
20260830032116 62 338 3.5 4.3 0.00 0.04 0.04 46 1020.9
20260830031116 63 315 2.6 4.3 0.00 0.04 0.04 44 1020.9
20260830030116 63 338 7.0 11.3 0.00 0.04 0.04 44 1020.7
20260830025116 64 338 4.3 7.0 0.00 0.04 0.04 43 1020.8
20260830024136 64 315 5.2 7.8 0.00 0.04 0.04 42 1020.7